Regional Weather Roundup
Issued by NWS

Home | Current Version | Previous Version | Text Only | Print | Product List | Glossary Off
Versions: 1 2 3 4 5 6 7 8 9 10 11 12 13 14 15 16 17 18 19 20 21 22 23 24 25 26 27 28 29 30 31 32 33 34 35 36 37 38 39 40 41 42 43 44 45 46 47 48 49 50

000
ASUS43 KMKX 290320
RWRWI

WISCONSIN REGIONAL WEATHER ROUNDUP
NATIONAL WEATHER SERVICE MILWAUKEE/SULLIVAN WI
900 PM CST WED JAN 28 2015

NOTE: "FAIR" INDICATES FEW OR NO CLOUDS BELOW 12,000 FEET WITH NO
SIGNIFICANT WEATHER AND/OR OBSTRUCTIONS TO VISIBILITY.

WIZ001-002-006>008-014>016-023>028-290400-
NORTHWEST WISCONSIN

CITY           SKY/WX    TMP DP  RH WIND       PRES   REMARKS
SUPERIOR ARPT  CLOUDY    30  26  83 CALM      29.85F
ASHLAND        CLOUDY    30  24  78 S10       29.86S WCI  21
HAYWARD        CLOUDY    27  23  85 CALM      29.83F FOG
SIREN          CLOUDY    29  28  97 CALM      29.85S FOG
CUMBERLAND     CLOUDY    28  27  93 CALM      29.82S FOG
RICE LAKE      CLOUDY    29  25  85 CALM      29.84F FOG
CHETEK         CLOUDY    28  24  86 E5        29.83F WCI  23
LADYSMITH      CLOUDY    27  24  87 CALM      29.85S
EAU CLAIRE     CLOUDY    29  23  78 E5        29.82S WCI  24
MENOMONIE      CLOUDY    30  26  85 NE3       29.83S FOG
NEW RICHMOND   CLOUDY    29  29 100 CALM      29.83S FOG
OSCEOLA        CLOUDY    30  30 100 CALM      29.86S FOG
$$

WIZ003>005-009-010-017-018-290400-
NORTH CENTRAL WISCONSIN

CITY           SKY/WX    TMP DP  RH WIND       PRES   REMARKS
MANITOWISH WTR CLOUDY    26  21  80 SW5       29.82S WCI  21
ARBOR VITAE    CLOUDY    29  23  77 S8        29.81F WCI  21
WOODRUFF       CLOUDY    29  23  77 S8        29.81F WCI  21
RHINELANDER    CLOUDY    26  20  77 S6        29.83F WCI  19
EAGLE RIVER    CLOUDY    27  19  74 S5        29.82F WCI  21
LAND O LAKES   CLOUDY    28  21  75 S6        29.83S WCI  22
PHILLIPS       CLOUDY    27  21  77 S7        29.82S WCI  20
TOMAHAWK       CLOUDY    27  20  76 CALM      29.83F
MEDFORD        CLOUDY    27  20  77 SE7       29.82F WCI  19
MERRILL        CLOUDY    27  21  78 S7        29.84F WCI  20
$$

WIZ029-030-035-036-043>047-290400-
CENTRAL WISCONSIN

CITY           SKY/WX    TMP DP  RH WIND       PRES   REMARKS
WAUSAU         CLOUDY    27  20  75 SE7       29.83F WCI  19
MOSINEE        CLOUDY    27  21  80 SE6       29.85F WCI  20
MARSHFIELD     CLOUDY    28  21  75 SE7       29.83F WCI  21
STEVENS POINT  CLOUDY    26  20  77 SE3       29.85F
WAUPACA        CLOUDY    30  22  72 E6        29.87F WCI  24
WAUTOMA        CLOUDY    30  22  72 E6        29.85F WCI  24
WISC RAPIDS    CLOUDY    28  19  69 E5        29.85F WCI  23
CAMP DOUGLAS   CLOUDY    30  28  93 E1        29.82F
$$

WIZ011>013-019>022-031-037>040-048>050-290400-
NORTHEAST WISCONSIN

CITY           SKY/WX    TMP DP  RH WIND       PRES   REMARKS
ANTIGO         CLOUDY    25  22  86 SE12      29.84F WCI  14
SHAWANO        CLOUDY    30  24  77 SE3       29.90F
OCONTO         CLOUDY    30  25  80 MISG      29.92S
STURGEON BAY   CLOUDY    30  21  69 S12G21    29.93F WCI  21
GREEN BAY      CLOUDY    31  24  75 S10       29.91S WCI  22
MANITOWOC      CLOUDY    33  25  72 S17G29    29.92F WCI  22
APPLETON       MOCLDY    28  23  80 SE10      29.88F WCI  19
CLINTONVILLE   CLOUDY    30  23  74 E3        29.89F
OSHKOSH        CLOUDY    30  22  72 SE9       29.86F WCI  22
$$

WIZ032>034-041-042-053>061-290400-
SOUTHWEST WISCONSIN

CITY           SKY/WX    TMP DP  RH WIND       PRES   REMARKS
LA CROSSE      CLOUDY    34  25  69 SE3       29.81F
SPARTA         CLOUDY    32  26  77 CALM      29.83S
VIROQUA        CLOUDY    31  28  87 SE7       29.78S WCI  24
BOSCOBEL       CLOUDY    33  27  78 CALM      29.81F
PRAIRIE DU CHI CLOUDY    32  26  78 E6        29.78F WCI  26
PLATTEVILLE    CLOUDY    32  30  90 E13       29.78F WCI  23
$$

WIZ056-057-062-063-064-067-068-290400-
SOUTH CENTRAL WISCONSIN

CITY           SKY/WX    TMP DP  RH WIND       PRES   REMARKS
REEDSBURG      CLOUDY    31  26  81 S5        29.80F WCI  26
BARABOO/DELLS  CLOUDY    31  25  80 S10       29.81F WCI  22
LONE ROCK      CLOUDY    33  26  75 SE7       29.82F WCI  27
MINERAL POINT  CLOUDY    32  30  93 SE13G20   29.77F WCI  22
MADISON        CLOUDY    31  24  75 S15       29.83F WCI  20
MIDDLETON      CLOUDY    33  26  74 S10G17    29.83F WCI  25
WATERTOWN      CLOUDY    31  23  72 S5        29.86F WCI  26
MONROE         CLOUDY    30  28  93 SE14G20   29.81F WCI  20
JANESVILLE     MOCLDY    32  25  74 SE12      29.86F WCI  23
$$

WIZ051-052-058>065-066-070>072-290400-
SOUTHEAST WISCONSIN

CITY           SKY/WX    TMP DP  RH WIND       PRES   REMARKS
MILWAUKEE      CLOUDY    32  21  64 S15G23    29.92S WCI  22
WAUKESHA       CLOUDY    30  23  74 SE12      29.90F WCI  21
MILWAUKEE/TIMM CLOUDY    32  21  64 SE13      29.91F WCI  22
RACINE         CLOUDY    32  22  66 S16G25    29.95R WCI  21
BURLINGTON     CLOUDY    29  20  69 S10G16    29.88F WCI  20
KENOSHA        CLOUDY    31  23  72 S7        29.93R WCI  24
FOND DU LAC    CLOUDY    31  22  69 S13       29.87F WCI  21
SHEBOYGAN      CLOUDY    32  24  72 S13       29.91F WCI  22
WEST BEND      CLOUDY    32  23  69 SE6G17    29.88F WCI  26
JUNEAU         CLOUDY    29  23  76 SE10      29.87F WCI  20
$$

LSZ147-162-290400-
LAKE SUPERIOR

STATION/POSITION TIME  TEMP    WIND        PRES    WAVE
                       AIR SEA DIR/SP/G            HT/PER
                 (UTC) (F)     (DEG/KT/KT) (MB)    (FT/S)
DEVILS ISLAND    0300   31     240/  9/ 10 1011.4F
PORT WING        0200   30     210/  3/  4 1011.5R
SAXON HARBOR     0200   32     210/  2/  6 1011.2F
$$

LMZ867-665-643>646-290400-
LAKE MICHIGAN

STATION/POSITION TIME  TEMP    WIND        PRES    WAVE
                       AIR SEA DIR/SP/G            HT/PER
                 (UTC) (F)     (DEG/KT/KT) (MB)    (FT/S)
NORTHPORT PIER   0211   31     150/ 12/ 23 1014.2F
SISTER BAY       0243   31     160/ 13/ 19   N/A
KEWAUNEE LAKESHO 0300   33     180/ 21/ 26 1012.6F
SHEBOYGAN LAKESH 0300   34     170/ 26/ 29 1013.5F
PORT WASHINGTON  0241   34     170/ 20     1014.2R
MILWAUKEE LAKESH 0300   33     170/ 17/ 21   N/A
KENOSHA   LAKESH 0300   33     180/ 13/ 19 1013.5R
$$

TC  - TEMPERATURE IN CELSIUS
VSB - VISIBILITY IN STATUTE MILES
WCI - WIND CHILL INDEX
HX  - HEAT INDEX



USA.gov is the U.S. government's official web portal to all federal, state and local government web resources and services.